Hourly Data Report for September 13, 2017

All times are specified in Local Standard Time (LST). Add 1 hour to adjust for Daylight Saving Time where and when it is observed.

EAST POINT (AUT)
PRINCE EDWARD ISLAND

46°27'36.000" N
61°59'18.000" W
7.70 m
8300418
71412
WEP

Download Data

Hourly Data (September 2017)
Hourly Data Report for September 13, 2017
Temp Definition
°C
Dew Point Temp Definition
°C
Rel Hum Definition
%
Wind Dir Definition
10's deg

Wind Spd Definition
km/h
Visibility Definition
km
Stn Press Definition
kPa
Hmdx Definition


Wind Chill Definition


Weather Definition


TIME
00:00 14.4 11.1 81 31 19   100.36     LegendNANA
01:00 14.5 10.6 77 30 22   100.31     LegendNANA
02:00 14.7 10.2 75 32 22   100.33     LegendNANA
03:00 14.5 10.5 77 33 20   100.35     LegendNANA
04:00 14.6 11.2 80 33 21   100.36     LegendNANA
05:00 14.6 10.4 76 32 17   100.38     LegendNANA
06:00 14.7 10.9 78 33 16   100.38     LegendNANA
07:00 15.3 10.6 73 32 16   100.46     LegendNANA
08:00 15.9 10.2 69 30 16   100.50     LegendNANA
09:00 17.0 10.3 65 30 12   100.49     LegendNANA
10:00 17.3 10.9 66 30 15   100.49     LegendNANA
11:00 18.3 12.7 70 29 18   100.48     LegendNANA
12:00 18.2 13.5 74 29 13   100.48     LegendNANA
13:00 17.7 13.4 76 9 6   100.47     LegendNANA
14:00 19.1 14.1 73 15 13   100.41     LegendNANA
15:00 20.4 14.0 67 32 8   100.41     LegendNANA
16:00 20.9 13.2 62 27 8   100.41     LegendNANA
17:00 20.4 14.0 67 28 7   100.42     LegendNANA
18:00 18.2 14.8 81 18 5   100.43     LegendNANA
19:00 16.9 14.1 84 20 11   100.46     LegendNANA
20:00 18.4 13.8 75 22 15   100.49     LegendNANA
21:00 19.5 13.0 66 23 20   100.48     LegendNANA
22:00 18.9 13.7 72 22 20   100.49     LegendNANA
23:00 18.3 13.3 72 22 16   100.49     LegendNANA

Notes on Data Quality.

Legend

  • E = Estimated
  • M = Missing
  • NA = Not Available
  • ‡ = Partner data that is not subject to review by the National Climate Archives
Date modified: